User: anonymous   Login
Location: Plymouth
(43.7570°N, 71.6890°W)
Time: 08:02:26
(UTC-05:00)
Language:

Cosmos 2016 Rocket - Orbit

View from above orbital plane
View from above orbital plane
View from above satellite
View from above satellite

Ground track
Ground track

The orbit data is extracted from the following two-line orbital elements,

1 19922U 89028B   14351.52371821  .00000153  00000-0  13893-3 0  1283
2 19922 082.9585 023.7833 0035042 281.8884 249.4410 13.77125092291611
Epoch (UTC): 17 December 2014 12:34:09
Eccentricity: 0.0035042
inclination: 82.9585°
perigee height: 948 km
apogee height: 1000 km
right ascension of ascending node: 23.7833°
argument of perigee: 281.8884°
revolutions per day: 13.77125092
mean anomaly at epoch: 249.4410°
orbit number at epoch: 29161

The dashed part of the orbit path shows where the satellite is in the earth's shadow,  

DLR